When you browse on this site, cookies collect data to enhance your experience and personalize the content and advertising you see.
Visit our Privacy Policy to learn more. By continuing to use the site, you agree to this use of cookies and data.
  • In Spain
  • List of Countries
  • For 7 days
  • Water Temperature
  • Satellite Maps
  • Weather Map
  • Weather Widgets
  • user-avatar
    Login

    Hourly Weather Innsbruck

    Today, 19 December, Wednesday

    Time Temperature Precipitation Wind Pressure Humidity
    00:00 -10°C° 0 mm 3 mps 594 mmHg 53%
    01:00 -10°C° 0 mm 2 mps 593 mmHg 53%
    02:00 -10°C° 0 mm 2 mps 593 mmHg 53%
    03:00 -9°C° 0 mm 2 mps 593 mmHg 52%
    04:00 -9°C° 0 mm 2 mps 593 mmHg 51%
    05:00 -9°C° 0 mm 2 mps 593 mmHg 52%
    06:00 -8°C° 0 mm 2 mps 593 mmHg 53%
    07:00 -8°C° 0 mm 2 mps 593 mmHg 63%
    08:00 -7°C° 0 mm 2 mps 594 mmHg 63%
    09:00 -6°C° 0 mm 2 mps 594 mmHg 64%
    10:00 -5°C° 0 mm 2 mps 595 mmHg 65%
    11:00 -4°C° 0 mm 2 mps 595 mmHg 67%
    12:00 -4°C° 0 mm 2 mps 594 mmHg 69%
    13:00 -3°C° 0 mm 2 mps 594 mmHg 71%
    14:00 -4°C° 0 mm 2 mps 594 mmHg 74%
    15:00 -5°C° 0 mm 2 mps 593 mmHg 76%
    16:00 -6°C° 0 mm 2 mps 592 mmHg 78%
    17:00 -7°C° 0 mm 2 mps 592 mmHg 79%
    18:00 -8°C° 0 mm 2 mps 591 mmHg 79%
    19:00 -9°C° 0 mm 2 mps 591 mmHg 80%
    20:00 -9°C° 0.1 mm 2 mps 591 mmHg 82%
    21:00 -9°C° 0.1 mm 2 mps 591 mmHg 84%
    22:00 -9°C° 0.1 mm 2 mps 591 mmHg 85%
    23:00 -8°C° 0.3 mm 2 mps 592 mmHg 87%

    Tomorrow, 20 December, Thursday

    Time Temperature Precipitation Wind Pressure Humidity
    00:00 -8°C° 0.3 mm 2 mps 592 mmHg 89%
    01:00 -7°C° 0.3 mm 1 mps 592 mmHg 91%
    02:00 -6°C° 0.5 mm 1 mps 592 mmHg 92%
    03:00 -6°C° 0.5 mm 1 mps 592 mmHg 93%
    04:00 -6°C° 0.5 mm 1 mps 592 mmHg 94%
    05:00 -6°C° 0.3 mm 1 mps 592 mmHg 93%
    06:00 -6°C° 0.3 mm 1 mps 593 mmHg 93%
    07:00 -6°C° 0.3 mm 1 mps 593 mmHg 93%
    08:00 -6°C° 0.2 mm 1 mps 593 mmHg 92%
    09:00 -4°C° 0.2 mm 1 mps 594 mmHg 91%
    10:00 -4°C° 0.2 mm 1 mps 594 mmHg 90%
    11:00 -3°C° 0.2 mm 1 mps 594 mmHg 89%
    12:00 -3°C° 0.2 mm 1 mps 594 mmHg 88%
    13:00 -2°C° 0.2 mm 1 mps 594 mmHg 88%
    14:00 -3°C° 0.2 mm 1 mps 594 mmHg 89%
    15:00 -3°C° 0.2 mm 1 mps 594 mmHg 90%
    16:00 -4°C° 0.2 mm 1 mps 594 mmHg 92%
    17:00 -6°C° 0.1 mm 1 mps 594 mmHg 91%
    18:00 -6°C° 0.1 mm 1 mps 594 mmHg 91%
    19:00 -7°C° 0.1 mm 1 mps 594 mmHg 91%
    20:00 -8°C° 0 mm 1 mps 594 mmHg 90%
    21:00 -8°C° 0 mm 1 mps 594 mmHg 88%
    22:00 -9°C° 0 mm 1 mps 594 mmHg 87%
    23:00 -10°C° 0 mm 2 mps 594 mmHg 85%

    Day after tomorrow, 21 December, Friday

    Time Temperature Precipitation Wind Pressure Humidity
    00:00 -10°C° 0 mm 2 mps 594 mmHg 83%
    01:00 -10°C° 0 mm 2 mps 594 mmHg 82%
    02:00 -10°C° 0 mm 2 mps 594 mmHg 80%
    03:00 -10°C° 0 mm 2 mps 594 mmHg 78%
    04:00 -10°C° 0 mm 2 mps 594 mmHg 77%
    05:00 -10°C° 0 mm 2 mps 594 mmHg 76%
    06:00 -10°C° 0 mm 3 mps 593 mmHg 74%
    07:00 -10°C° 0 mm 3 mps 593 mmHg 73%
    08:00 -9°C° 0 mm 3 mps 594 mmHg 72%
    09:00 -7°C° 0 mm 3 mps 594 mmHg 72%
    10:00 -6°C° 0 mm 3 mps 595 mmHg 71%
    11:00 -5°C° 0.1 mm 3 mps 595 mmHg 72%
    12:00 -5°C° 0.1 mm 4 mps 594 mmHg 72%
    13:00 -4°C° 0.1 mm 4 mps 594 mmHg 73%
    14:00 -4°C° 0.2 mm 3 mps 594 mmHg 75%
    15:00 -4°C° 0.2 mm 3 mps 594 mmHg 77%
    16:00 -5°C° 0.2 mm 3 mps 594 mmHg 79%
    17:00 -4°C° 0.2 mm 3 mps 594 mmHg 80%
    18:00 -4°C° 0.2 mm 3 mps 594 mmHg 80%
    19:00 -3°C° 0.2 mm 2 mps 594 mmHg 81%
    20:00 -3°C° 0.1 mm 2 mps 595 mmHg 81%
    21:00 -3°C° 0.1 mm 2 mps 595 mmHg 82%
    22:00 -3°C° 0.1 mm 2 mps 595 mmHg 83%
    23:00 -3°C° 0.1 mm 2 mps 595 mmHg 83%

    22 December, Saturday

    Time Temperature Precipitation Wind Pressure Humidity
    00:00 -3°C° 0.1 mm 2 mps 594 mmHg 83%
    01:00 -3°C° 0.1 mm 2 mps 594 mmHg 83%
    02:00 -3°C° 0 mm 2 mps 594 mmHg 83%
    03:00 -3°C° 0 mm 2 mps 594 mmHg 82%
    04:00 -4°C° 0 mm 3 mps 594 mmHg 81%
    05:00 -3°C° 0 mm 2 mps 594 mmHg 82%
    06:00 -3°C° 0 mm 2 mps 594 mmHg 83%
    07:00 -2°C° 0 mm 2 mps 594 mmHg 85%
    08:00 -2°C° 0 mm 2 mps 594 mmHg 85%
    09:00 -2°C° 0 mm 2 mps 595 mmHg 86%
    10:00 -1°C° 0 mm 2 mps 595 mmHg 87%
    11:00 -1°C° 0 mm 2 mps 595 mmHg 89%
    12:00 +1°C° 0 mm 2 mps 595 mmHg 90%
    13:00 +1°C° 0 mm 2 mps 595 mmHg 92%
    14:00 -1°C° 0.2 mm 2 mps 595 mmHg 92%
    15:00 -1°C° 0.2 mm 2 mps 595 mmHg 91%
    16:00 -2°C° 0.2 mm 2 mps 595 mmHg 91%
    17:00 -3°C° 0.4 mm 2 mps 595 mmHg 91%
    18:00 -3°C° 0.4 mm 2 mps 596 mmHg 91%
    19:00 -4°C° 0.4 mm 2 mps 596 mmHg 91%
    20:00 -4°C° 0.2 mm 2 mps 596 mmHg 91%
    21:00 -4°C° 0.2 mm 2 mps 596 mmHg 90%
    22:00 -5°C° 0.2 mm 2 mps 596 mmHg 90%
    23:00 -5°C° 0.1 mm 2 mps 596 mmHg 88%

    23 December, Sunday

    Time Temperature Precipitation Wind Pressure Humidity
    00:00 -5°C° 0.1 mm 2 mps 596 mmHg 87%
    01:00 -5°C° 0.1 mm 2 mps 596 mmHg 86%
    02:00 -5°C° 0.1 mm 2 mps 596 mmHg 86%
    03:00 -5°C° 0.1 mm 2 mps 596 mmHg 86%
    04:00 -4°C° 0.1 mm 2 mps 596 mmHg 86%
    05:00 -4°C° 0.7 mm 2 mps 596 mmHg 87%
    06:00 -2°C° 0.7 mm 1 mps 596 mmHg 88%
    07:00 -1°C° 0.7 mm 1 mps 597 mmHg 89%
    08:00 -1°C° 1.2 mm 1 mps 597 mmHg 90%
    09:00 -1°C° 1.2 mm 1 mps 597 mmHg 90%
    10:00 0°C° 1.2 mm 1 mps 598 mmHg 91%
    11:00 0°C° 1.5 mm 1 mps 597 mmHg 92%
    12:00 0°C° 1.5 mm 1 mps 597 mmHg 93%
    13:00 +1°C° 1.5 mm 1 mps 597 mmHg 95%
    14:00 0°C° 1.2 mm 1 mps 597 mmHg 94%
    15:00 0°C° 1.2 mm 1 mps 597 mmHg 94%
    16:00 0°C° 1.2 mm 1 mps 597 mmHg 93%
    17:00 0°C° 1.4 mm 1 mps 597 mmHg 93%
    18:00 -1°C° 1.4 mm 1 mps 597 mmHg 93%
    19:00 -1°C° 1.4 mm 1 mps 597 mmHg 93%
    20:00 -1°C° 1.4 mm 1 mps 597 mmHg 93%
    21:00 -1°C° 1.4 mm 1 mps 598 mmHg 93%
    22:00 -1°C° 1.4 mm 1 mps 598 mmHg 94%
    23:00 -1°C° 0.7 mm 1 mps 598 mmHg 93%

    24 December, Monday

    Time Temperature Precipitation Wind Pressure Humidity
    00:00 -1°C° 0.7 mm 1 mps 598 mmHg 93%
    01:00 -3°C° 0.7 mm 2 mps 597 mmHg 93%
    02:00 -1°C° 0.8 mm 1 mps 597 mmHg 93%
    03:00 -1°C° 0.8 mm 1 mps 597 mmHg 93%
    04:00 -1°C° 0.8 mm 1 mps 597 mmHg 93%
    05:00 -1°C° 2.6 mm 1 mps 597 mmHg 93%
    06:00 -3°C° 2.6 mm 2 mps 597 mmHg 94%
    07:00 -3°C° 2.6 mm 2 mps 597 mmHg 94%
    08:00 -3°C° 1.7 mm 2 mps 598 mmHg 94%
    09:00 -3°C° 1.7 mm 2 mps 598 mmHg 94%
    10:00 -3°C° 1.7 mm 2 mps 598 mmHg 94%
    11:00 -3°C° 1.7 mm 2 mps 598 mmHg 94%
    12:00 -1°C° 1.7 mm 1 mps 598 mmHg 94%
    13:00 -1°C° 1.7 mm 1 mps 598 mmHg 94%
    14:00 -3°C° 1 mm 2 mps 598 mmHg 94%
    15:00 -3°C° 1 mm 2 mps 598 mmHg 94%
    16:00 -4°C° 1 mm 2 mps 598 mmHg 95%
    17:00 -4°C° 0.5 mm 2 mps 598 mmHg 95%
    18:00 -4°C° 0.5 mm 2 mps 599 mmHg 95%
    19:00 -5°C° 0.5 mm 2 mps 599 mmHg 95%
    20:00 -5°C° 0.1 mm 2 mps 599 mmHg 95%
    21:00 -5°C° 0.1 mm 2 mps 599 mmHg 94%
    22:00 -6°C° 0.1 mm 2 mps 599 mmHg 94%
    23:00 -4°C° 0 mm 1 mps 599 mmHg 93%
    Show more